Location: Devargunta
(16.7631°N, 80.9077°E)
Time: 11:43:50
(UTC+00:00)

Cosmos 1455 - Pass Details

Date: 19 January 2021
Orbit: 499 x 520 km, 82.5° (Epoch: 07 March)

Event Time Altitude Azimuth Distance (km) Brightness Sun altitude
Rises 13:01:04 0° 18° (NNE) 2,620 5.4 -8.9°
Reaches altitude 10° 13:03:42 10° 37° (NE) 1,737 4.4 -9.5°
Maximum altitude 13:06:24 18° 83° (E) 1,296 3.6 -10.1°
Drops below altitude 10° 13:09:06 10° 128° (SE) 1,742 4.5 -10.7°
Sets 13:11:44 0° 147° (SSE) 2,630 5.6 -11.3°
